Zurück zum Katalog

FENGYUN 1C DEB

AktivLEO
NORAD 31788·DEBRIS·🇨🇳 China

Gestartet May 10, 1999 von Taiyuan Satellite Launch Center

Loading…

Nächste Überflüge (nächste 24 Stunden)

TLE

AktuellSource: Space-Track

Epoche: Sep 13, 2026, 09:14 UTC

1 31788U 99025CGP 26256.38490589  .00001532  00000-0  13964-2 0  9995
2 31788 102.5527 113.8364 0458789 201.6227 335.8229 13.46472801942999

Verfolge FENGYUN 1C DEB in Echtzeit mit AllMySat

Download on the App Store